Year,Month,Day,Hour,Minute,Value (Times are PST for temperature in C)
2018,05,12,00,00,12.90
2018,05,12,00,01,12.90
2018,05,12,00,02,12.90
2018,05,12,00,03,12.90
2018,05,12,00,04,12.90
2018,05,12,00,05,12.90
2018,05,12,00,06,12.90
2018,05,12,00,07,12.90
2018,05,12,00,08,12.90
2018,05,12,00,09,12.90
2018,05,12,00,10,12.90
2018,05,12,00,11,12.90
2018,05,12,00,12,12.90
2018,05,12,00,13,12.80
2018,05,12,00,14,12.80
2018,05,12,00,15,12.80
2018,05,12,00,16,12.80
2018,05,12,00,17,12.80
2018,05,12,00,18,12.80
2018,05,12,00,19,12.80
2018,05,12,00,20,12.80
2018,05,12,00,21,12.70
2018,05,12,00,22,12.70
2018,05,12,00,23,12.70
2018,05,12,00,24,12.70
2018,05,12,00,25,12.70
2018,05,12,00,26,12.70
2018,05,12,00,27,12.70
2018,05,12,00,28,12.70
2018,05,12,00,29,12.70
2018,05,12,00,30,12.70
2018,05,12,00,31,12.70
2018,05,12,00,32,12.70
2018,05,12,00,33,12.70
2018,05,12,00,34,12.70
2018,05,12,00,35,12.60
2018,05,12,00,36,12.60
2018,05,12,00,37,12.60
2018,05,12,00,38,12.60
2018,05,12,00,39,12.60
2018,05,12,00,40,12.60
2018,05,12,00,41,12.60
2018,05,12,00,42,12.60
2018,05,12,00,43,12.60
2018,05,12,00,44,12.60
2018,05,12,00,45,12.60
2018,05,12,00,46,12.60
2018,05,12,00,47,12.50
2018,05,12,00,48,12.50
2018,05,12,00,49,12.50
2018,05,12,00,50,12.50
2018,05,12,00,51,12.50
2018,05,12,00,52,12.40
2018,05,12,00,53,12.40
2018,05,12,00,54,12.40
2018,05,12,00,55,12.40
2018,05,12,00,56,12.40
2018,05,12,00,57,12.40
2018,05,12,00,58,12.40
2018,05,12,00,59,12.30
2018,05,12,01,00,12.30
2018,05,12,01,01,12.30
2018,05,12,01,02,12.30
2018,05,12,01,03,12.30
2018,05,12,01,04,12.30
2018,05,12,01,05,12.30
2018,05,12,01,06,12.20
2018,05,12,01,07,12.20
2018,05,12,01,08,12.20
2018,05,12,01,09,12.20
2018,05,12,01,10,12.20
2018,05,12,01,11,12.20
2018,05,12,01,12,12.10
2018,05,12,01,13,12.10
2018,05,12,01,14,12.10
2018,05,12,01,15,12.10
2018,05,12,01,16,12.10
2018,05,12,01,17,12.10
2018,05,12,01,18,12.10
2018,05,12,01,19,12.10
2018,05,12,01,20,12.00
2018,05,12,01,21,12.00
2018,05,12,01,22,12.00
2018,05,12,01,23,12.00
2018,05,12,01,24,11.90
2018,05,12,01,25,11.90
2018,05,12,01,26,11.90
2018,05,12,01,27,11.90
2018,05,12,01,28,11.90
2018,05,12,01,29,11.90
2018,05,12,01,30,11.90
2018,05,12,01,31,11.80
2018,05,12,01,32,11.80
2018,05,12,01,33,11.80
2018,05,12,01,34,11.80
2018,05,12,01,35,11.80
2018,05,12,01,36,11.80
2018,05,12,01,37,11.80
2018,05,12,01,38,11.80
2018,05,12,01,39,11.80
2018,05,12,01,40,11.80
2018,05,12,01,41,11.80
2018,05,12,01,42,11.70
2018,05,12,01,43,11.70
2018,05,12,01,44,11.70
2018,05,12,01,45,11.70
2018,05,12,01,46,11.70
2018,05,12,01,47,11.70
2018,05,12,01,48,11.70
2018,05,12,01,49,11.70
2018,05,12,01,50,11.70
2018,05,12,01,51,11.70
2018,05,12,01,52,11.70
2018,05,12,01,53,11.70
2018,05,12,01,54,11.70
2018,05,12,01,55,11.70
2018,05,12,01,56,11.60
2018,05,12,01,57,11.60
2018,05,12,01,58,11.60
2018,05,12,01,59,11.60
2018,05,12,02,00,11.60
2018,05,12,02,01,11.60
2018,05,12,02,02,11.70
2018,05,12,02,03,11.70
2018,05,12,02,04,11.70
2018,05,12,02,05,11.70
2018,05,12,02,06,11.70
2018,05,12,02,07,11.70
2018,05,12,02,08,11.70
2018,05,12,02,09,11.60
2018,05,12,02,10,11.60
2018,05,12,02,11,11.60
2018,05,12,02,12,11.60
2018,05,12,02,13,11.60
2018,05,12,02,14,11.60
2018,05,12,02,15,11.60
2018,05,12,02,16,11.60
2018,05,12,02,17,11.50
2018,05,12,02,18,11.50
2018,05,12,02,19,11.50
2018,05,12,02,20,11.50
2018,05,12,02,21,11.40
2018,05,12,02,22,11.40
2018,05,12,02,23,11.40
2018,05,12,02,24,11.40
2018,05,12,02,25,11.40
2018,05,12,02,26,11.40
2018,05,12,02,27,11.40
2018,05,12,02,28,11.40
2018,05,12,02,29,11.40
2018,05,12,02,30,11.40
2018,05,12,02,31,11.40
2018,05,12,02,32,11.40
2018,05,12,02,33,11.40
2018,05,12,02,34,11.40
2018,05,12,02,35,11.40
2018,05,12,02,36,11.40
2018,05,12,02,37,11.40
2018,05,12,02,38,11.30
2018,05,12,02,39,11.30
2018,05,12,02,40,11.30
2018,05,12,02,41,11.30
2018,05,12,02,42,11.30
2018,05,12,02,43,11.30
2018,05,12,02,44,11.30
2018,05,12,02,45,11.30
2018,05,12,02,46,11.30
2018,05,12,02,47,11.30
2018,05,12,02,48,11.30
2018,05,12,02,49,11.30
2018,05,12,02,50,11.30
2018,05,12,02,51,11.30
2018,05,12,02,52,11.30
2018,05,12,02,53,11.30
2018,05,12,02,54,11.30
2018,05,12,02,55,11.30
2018,05,12,02,56,11.20
2018,05,12,02,57,11.20
2018,05,12,02,58,11.20
2018,05,12,02,59,11.20
2018,05,12,03,00,11.20
2018,05,12,03,01,11.20
2018,05,12,03,02,11.20
2018,05,12,03,03,11.20
2018,05,12,03,04,11.20
2018,05,12,03,05,11.20
2018,05,12,03,06,11.20
2018,05,12,03,07,11.20
2018,05,12,03,08,11.20
2018,05,12,03,09,11.20
2018,05,12,03,10,11.20
2018,05,12,03,11,11.20
2018,05,12,03,12,11.10
2018,05,12,03,13,11.10
2018,05,12,03,14,11.10
2018,05,12,03,15,11.10
2018,05,12,03,16,11.10
2018,05,12,03,17,11.10
2018,05,12,03,18,11.10
2018,05,12,03,19,11.10
2018,05,12,03,20,11.10
2018,05,12,03,21,11.10
2018,05,12,03,22,11.10
2018,05,12,03,23,11.10
2018,05,12,03,24,11.10
2018,05,12,03,25,11.10
2018,05,12,03,26,11.10
2018,05,12,03,27,11.10
2018,05,12,03,28,11.00
2018,05,12,03,29,11.00
2018,05,12,03,30,11.00
2018,05,12,03,31,11.00
2018,05,12,03,32,10.90
2018,05,12,03,33,10.90
2018,05,12,03,34,10.90
2018,05,12,03,35,10.90
2018,05,12,03,36,10.90
2018,05,12,03,37,10.90
2018,05,12,03,38,10.90
2018,05,12,03,39,10.90
2018,05,12,03,40,10.90
2018,05,12,03,41,10.90
2018,05,12,03,42,10.80
2018,05,12,03,43,10.80
2018,05,12,03,44,10.80
2018,05,12,03,45,10.80
2018,05,12,03,46,10.80
2018,05,12,03,47,10.80
2018,05,12,03,48,10.80
2018,05,12,03,49,10.80
2018,05,12,03,50,10.80
2018,05,12,03,51,10.80
2018,05,12,03,52,10.90
2018,05,12,03,53,10.90
2018,05,12,03,54,10.90
2018,05,12,03,55,10.90
2018,05,12,03,56,10.90
2018,05,12,03,57,10.90
2018,05,12,03,58,10.90
2018,05,12,03,59,10.90
2018,05,12,04,00,10.90
2018,05,12,04,01,10.80
2018,05,12,04,02,10.80
2018,05,12,04,03,10.80
2018,05,12,04,04,10.80
2018,05,12,04,05,10.80
2018,05,12,04,06,10.80
2018,05,12,04,07,10.80
2018,05,12,04,08,10.80
2018,05,12,04,09,10.80
2018,05,12,04,10,10.80
2018,05,12,04,11,10.80
2018,05,12,04,12,10.80
2018,05,12,04,13,10.70
2018,05,12,04,14,10.70
2018,05,12,04,15,10.70
2018,05,12,04,16,10.70
2018,05,12,04,17,10.70
2018,05,12,04,18,10.70
2018,05,12,04,19,10.70
2018,05,12,04,20,10.70
2018,05,12,04,21,10.70
2018,05,12,04,22,10.70
2018,05,12,04,23,10.70
2018,05,12,04,24,10.70
2018,05,12,04,25,10.70
2018,05,12,04,26,10.70
2018,05,12,04,27,10.70
2018,05,12,04,28,10.70
2018,05,12,04,29,10.70
2018,05,12,04,30,10.70
2018,05,12,04,31,10.70
2018,05,12,04,32,10.70
2018,05,12,04,33,10.70
2018,05,12,04,34,10.70
2018,05,12,04,35,10.70
2018,05,12,04,36,10.70
2018,05,12,04,37,10.70
2018,05,12,04,38,10.70
2018,05,12,04,39,10.60
2018,05,12,04,40,10.70
2018,05,12,04,41,10.60
2018,05,12,04,42,10.60
2018,05,12,04,43,10.60
2018,05,12,04,44,10.60
2018,05,12,04,45,10.60
2018,05,12,04,46,10.60
2018,05,12,04,47,10.60
2018,05,12,04,48,10.60
2018,05,12,04,49,10.60
2018,05,12,04,50,10.60
2018,05,12,04,51,10.60
2018,05,12,04,52,10.50
2018,05,12,04,53,10.50
2018,05,12,04,54,10.50
2018,05,12,04,55,10.50
2018,05,12,04,56,10.50
2018,05,12,04,57,10.50
2018,05,12,04,58,10.50
2018,05,12,04,59,10.50
2018,05,12,05,00,10.50
2018,05,12,05,01,10.40
2018,05,12,05,02,10.40
2018,05,12,05,03,10.40
2018,05,12,05,04,10.40
2018,05,12,05,05,10.40
2018,05,12,05,06,10.40
2018,05,12,05,07,10.40
2018,05,12,05,08,10.40
2018,05,12,05,09,10.40
2018,05,12,05,10,10.40
2018,05,12,05,11,10.40
2018,05,12,05,12,10.40
2018,05,12,05,13,10.40
2018,05,12,05,14,10.40
2018,05,12,05,15,10.40
2018,05,12,05,16,10.40
2018,05,12,05,17,10.40
2018,05,12,05,18,10.40
2018,05,12,05,19,10.40
2018,05,12,05,20,10.40
2018,05,12,05,21,10.40
2018,05,12,05,22,10.40
2018,05,12,05,23,10.40
2018,05,12,05,24,10.40
2018,05,12,05,25,10.40
2018,05,12,05,26,10.40
2018,05,12,05,27,10.40
2018,05,12,05,28,10.40
2018,05,12,05,29,10.30
2018,05,12,05,30,10.30
2018,05,12,05,31,10.30
2018,05,12,05,32,10.30
2018,05,12,05,33,10.30
2018,05,12,05,34,10.30
2018,05,12,05,35,10.30
2018,05,12,05,36,10.30
2018,05,12,05,37,10.30
2018,05,12,05,38,10.30
2018,05,12,05,39,10.30
2018,05,12,05,40,10.30
2018,05,12,05,41,10.30
2018,05,12,05,42,10.30
2018,05,12,05,43,10.30
2018,05,12,05,44,10.30
2018,05,12,05,45,10.20
2018,05,12,05,46,10.20
2018,05,12,05,47,10.20
2018,05,12,05,48,10.20
2018,05,12,05,49,10.20
2018,05,12,05,50,10.20
2018,05,12,05,51,10.20
2018,05,12,05,52,10.20
2018,05,12,05,53,10.20
2018,05,12,05,54,10.20
2018,05,12,05,55,10.30
2018,05,12,05,56,10.20
2018,05,12,05,57,10.20
2018,05,12,05,58,10.20
2018,05,12,05,59,10.30
2018,05,12,06,00,10.30
2018,05,12,06,01,10.30
2018,05,12,06,02,10.30
2018,05,12,06,03,10.30
2018,05,12,06,04,10.30
2018,05,12,06,05,10.30
2018,05,12,06,06,10.30
2018,05,12,06,07,10.30
2018,05,12,06,08,10.30
2018,05,12,06,09,10.30
2018,05,12,06,10,10.30
2018,05,12,06,11,10.30
2018,05,12,06,12,10.30
2018,05,12,06,13,10.30
2018,05,12,06,14,10.20
2018,05,12,06,15,10.20
2018,05,12,06,16,10.20
2018,05,12,06,17,10.20
2018,05,12,06,18,10.20
2018,05,12,06,19,10.20
2018,05,12,06,20,10.20
2018,05,12,06,21,10.20
2018,05,12,06,22,10.20
2018,05,12,06,23,10.20
2018,05,12,06,24,10.20
2018,05,12,06,25,10.20
2018,05,12,06,26,10.20
2018,05,12,06,27,10.30
2018,05,12,06,28,10.30
2018,05,12,06,29,10.30
2018,05,12,06,30,10.30
2018,05,12,06,31,10.30
2018,05,12,06,32,10.30
2018,05,12,06,33,10.30
2018,05,12,06,34,10.30
2018,05,12,06,35,10.30
2018,05,12,06,36,10.30
2018,05,12,06,37,10.30
2018,05,12,06,38,10.30
2018,05,12,06,39,10.30
2018,05,12,06,40,10.30
2018,05,12,06,41,10.30
2018,05,12,06,42,10.30
2018,05,12,06,43,10.30
2018,05,12,06,44,10.30
2018,05,12,06,45,10.30
2018,05,12,06,46,10.30
2018,05,12,06,47,10.30
2018,05,12,06,48,10.30
2018,05,12,06,49,10.30
2018,05,12,06,50,10.40
2018,05,12,06,51,10.40
2018,05,12,06,52,10.40
2018,05,12,06,53,10.40
2018,05,12,06,54,10.40
2018,05,12,06,55,10.40
2018,05,12,06,56,10.40
2018,05,12,06,57,10.50
2018,05,12,06,58,10.50
2018,05,12,06,59,10.50
2018,05,12,07,00,10.50
2018,05,12,07,01,10.50
2018,05,12,07,02,10.50
2018,05,12,07,03,10.50
2018,05,12,07,04,10.50
2018,05,12,07,05,10.60
2018,05,12,07,06,10.60
2018,05,12,07,07,10.60
2018,05,12,07,08,10.60
2018,05,12,07,09,10.60
2018,05,12,07,10,10.70
2018,05,12,07,11,10.70
2018,05,12,07,12,10.70
2018,05,12,07,13,10.70
2018,05,12,07,14,10.80
2018,05,12,07,15,10.80
2018,05,12,07,16,10.80
2018,05,12,07,17,10.80
2018,05,12,07,18,10.90
2018,05,12,07,19,10.90
2018,05,12,07,20,10.90
2018,05,12,07,21,11.00
2018,05,12,07,22,11.00
2018,05,12,07,23,11.00
2018,05,12,07,24,11.10
2018,05,12,07,25,11.10
2018,05,12,07,26,11.10
2018,05,12,07,27,11.20
2018,05,12,07,28,11.20
2018,05,12,07,29,11.20
2018,05,12,07,30,11.30
2018,05,12,07,31,11.30
2018,05,12,07,32,11.30
2018,05,12,07,33,11.40
2018,05,12,07,34,11.40
2018,05,12,07,35,11.40
2018,05,12,07,36,11.50
2018,05,12,07,37,11.50
2018,05,12,07,38,11.60
2018,05,12,07,39,11.60
2018,05,12,07,40,11.70
2018,05,12,07,41,11.70
2018,05,12,07,42,11.70
2018,05,12,07,43,11.70
2018,05,12,07,44,11.80
2018,05,12,07,45,11.80
2018,05,12,07,46,11.80
2018,05,12,07,47,11.80
2018,05,12,07,48,11.90
2018,05,12,07,49,11.90
2018,05,12,07,50,11.90
2018,05,12,07,51,12.00
2018,05,12,07,52,12.00
2018,05,12,07,53,12.10
2018,05,12,07,54,12.10
2018,05,12,07,55,12.10
2018,05,12,07,56,12.20
2018,05,12,07,57,12.20
2018,05,12,07,58,12.20
2018,05,12,07,59,12.20
2018,05,12,08,00,12.30
2018,05,12,08,01,12.30
2018,05,12,08,02,12.30
2018,05,12,08,03,12.30
2018,05,12,08,04,12.40
2018,05,12,08,05,12.40
2018,05,12,08,06,12.50
2018,05,12,08,07,12.50
2018,05,12,08,08,12.60
2018,05,12,08,09,12.60
2018,05,12,08,10,12.60
2018,05,12,08,11,12.60
2018,05,12,08,12,12.60
2018,05,12,08,13,12.70
2018,05,12,08,14,12.70
2018,05,12,08,15,12.70
2018,05,12,08,16,12.70
2018,05,12,08,17,12.70
2018,05,12,08,18,12.70
2018,05,12,08,19,12.80
2018,05,12,08,20,12.80
2018,05,12,08,21,12.80
2018,05,12,08,22,12.90
2018,05,12,08,23,12.90
2018,05,12,08,24,12.90
2018,05,12,08,25,12.90
2018,05,12,08,26,13.00
2018,05,12,08,27,13.00
2018,05,12,08,28,13.10
2018,05,12,08,29,13.10
2018,05,12,08,30,13.20
2018,05,12,08,31,13.20
2018,05,12,08,32,13.30
2018,05,12,08,33,13.30
2018,05,12,08,34,13.30
2018,05,12,08,35,13.40
2018,05,12,08,36,13.40
2018,05,12,08,37,13.40
2018,05,12,08,38,13.40
2018,05,12,08,39,13.40
2018,05,12,08,40,13.40
2018,05,12,08,41,13.40
2018,05,12,08,42,13.40
2018,05,12,08,43,13.40
2018,05,12,08,44,13.40
2018,05,12,08,45,13.50
2018,05,12,08,46,13.50
2018,05,12,08,47,13.60
2018,05,12,08,48,13.60
2018,05,12,08,49,13.60
2018,05,12,08,50,13.60
2018,05,12,08,51,13.60
2018,05,12,08,52,13.60
2018,05,12,08,53,13.70
2018,05,12,08,54,13.80
2018,05,12,08,55,13.80
2018,05,12,08,56,13.90
2018,05,12,08,57,13.90
2018,05,12,08,58,14.00
2018,05,12,08,59,14.10
2018,05,12,09,00,14.10
2018,05,12,09,01,14.20
2018,05,12,09,02,14.20
2018,05,12,09,03,14.30
2018,05,12,09,04,14.30
2018,05,12,09,05,14.40
2018,05,12,09,06,14.40
2018,05,12,09,07,14.40
2018,05,12,09,08,14.40
2018,05,12,09,09,14.50
2018,05,12,09,10,14.50
2018,05,12,09,11,14.60
2018,05,12,09,12,14.70
2018,05,12,09,13,14.70
2018,05,12,09,14,14.70
2018,05,12,09,15,14.80
2018,05,12,09,16,14.80
2018,05,12,09,17,14.80
2018,05,12,09,18,14.70
2018,05,12,09,19,14.80
2018,05,12,09,20,14.80
2018,05,12,09,21,14.80
2018,05,12,09,22,14.80
2018,05,12,09,23,14.80
2018,05,12,09,24,14.90
2018,05,12,09,25,14.90
2018,05,12,09,26,15.00
2018,05,12,09,27,15.00
2018,05,12,09,28,15.10
2018,05,12,09,29,15.10
2018,05,12,09,30,15.20
2018,05,12,09,31,15.20
2018,05,12,09,32,15.20
2018,05,12,09,33,15.20
2018,05,12,09,34,15.20
2018,05,12,09,35,15.20
2018,05,12,09,36,15.20
2018,05,12,09,37,15.10
2018,05,12,09,38,15.00
2018,05,12,09,39,15.00
2018,05,12,09,40,14.90
2018,05,12,09,41,14.90
2018,05,12,09,42,14.80
2018,05,12,09,43,14.80
2018,05,12,09,44,14.80
2018,05,12,09,45,14.80
2018,05,12,09,46,14.90
2018,05,12,09,47,14.90
2018,05,12,09,48,14.90
2018,05,12,09,49,15.00
2018,05,12,09,50,15.00
2018,05,12,09,51,15.00
2018,05,12,09,52,15.10
2018,05,12,09,53,15.10
2018,05,12,09,54,15.10
2018,05,12,09,55,15.20
2018,05,12,09,56,15.20
2018,05,12,09,57,15.20
2018,05,12,09,58,15.20
2018,05,12,09,59,15.10
2018,05,12,10,00,15.10
2018,05,12,10,01,15.10
2018,05,12,10,02,15.10
2018,05,12,10,03,15.10
2018,05,12,10,04,15.20
2018,05,12,10,05,15.20
2018,05,12,10,06,15.20
2018,05,12,10,07,15.20
2018,05,12,10,08,15.10
2018,05,12,10,09,15.10
2018,05,12,10,10,15.10
2018,05,12,10,11,15.10
2018,05,12,10,12,15.10
2018,05,12,10,13,15.10
2018,05,12,10,14,15.10
2018,05,12,10,15,15.10
2018,05,12,10,16,15.10
2018,05,12,10,17,15.10
2018,05,12,10,18,15.10
2018,05,12,10,19,15.10
2018,05,12,10,20,15.10
2018,05,12,10,21,15.20
2018,05,12,10,22,15.30
2018,05,12,10,23,15.30
2018,05,12,10,24,15.40
2018,05,12,10,25,15.40
2018,05,12,10,26,15.30
2018,05,12,10,27,15.40
2018,05,12,10,28,15.40
2018,05,12,10,29,15.40
2018,05,12,10,30,15.40
2018,05,12,10,31,15.40
2018,05,12,10,32,15.50
2018,05,12,10,33,15.50
2018,05,12,10,34,15.60
2018,05,12,10,35,15.70
2018,05,12,10,36,15.80
2018,05,12,10,37,15.90
2018,05,12,10,38,15.90
2018,05,12,10,39,16.00
2018,05,12,10,40,16.10
2018,05,12,10,41,16.20
2018,05,12,10,42,16.20
2018,05,12,10,43,16.30
2018,05,12,10,44,16.30
2018,05,12,10,45,16.30
2018,05,12,10,46,16.40
2018,05,12,10,47,16.40
2018,05,12,10,48,16.40
2018,05,12,10,49,16.50
2018,05,12,10,50,16.60
2018,05,12,10,51,16.60
2018,05,12,10,52,16.60
2018,05,12,10,53,16.60
2018,05,12,10,54,16.60
2018,05,12,10,55,16.60
2018,05,12,10,56,16.70
2018,05,12,10,57,16.70
2018,05,12,10,58,16.80
2018,05,12,10,59,16.90
2018,05,12,11,00,16.90
2018,05,12,11,01,16.90
2018,05,12,11,02,16.90
2018,05,12,11,03,17.00
2018,05,12,11,04,17.00
2018,05,12,11,05,17.00
2018,05,12,11,06,17.00
2018,05,12,11,07,17.10
2018,05,12,11,08,17.20
2018,05,12,11,09,17.20
2018,05,12,11,10,17.20
2018,05,12,11,11,17.20
2018,05,12,11,12,17.20
2018,05,12,11,13,17.10
2018,05,12,11,14,17.00
2018,05,12,11,15,16.90
2018,05,12,11,16,16.90
2018,05,12,11,17,16.90
2018,05,12,11,18,16.90
2018,05,12,11,19,16.90
2018,05,12,11,20,17.00
2018,05,12,11,21,17.10
2018,05,12,11,22,17.20
2018,05,12,11,23,17.20
2018,05,12,11,24,17.20
2018,05,12,11,25,17.30
2018,05,12,11,26,17.30
2018,05,12,11,27,17.30
2018,05,12,11,28,17.30
2018,05,12,11,29,17.40
2018,05,12,11,30,17.50
2018,05,12,11,31,17.50
2018,05,12,11,32,17.60
2018,05,12,11,33,17.70
2018,05,12,11,34,17.70
2018,05,12,11,35,17.80
2018,05,12,11,36,17.90
2018,05,12,11,37,18.00
2018,05,12,11,38,18.00
2018,05,12,11,39,18.10
2018,05,12,11,40,18.20
2018,05,12,11,41,18.20
2018,05,12,11,42,18.20
2018,05,12,11,43,18.20
2018,05,12,11,44,18.30
2018,05,12,11,45,18.30
2018,05,12,11,46,18.40
2018,05,12,11,47,18.40
2018,05,12,11,48,18.30
2018,05,12,11,49,18.30
2018,05,12,11,50,18.20
2018,05,12,11,51,18.20
2018,05,12,11,52,18.20
2018,05,12,11,53,18.20
2018,05,12,11,54,18.30
2018,05,12,11,55,18.30
2018,05,12,11,56,18.40
2018,05,12,11,57,18.40
2018,05,12,11,58,18.40
2018,05,12,11,59,18.40
2018,05,12,12,00,18.40
2018,05,12,12,01,18.40
2018,05,12,12,02,18.50
2018,05,12,12,03,18.60
2018,05,12,12,04,18.70
2018,05,12,12,05,18.60
2018,05,12,12,06,18.60
2018,05,12,12,07,18.60
2018,05,12,12,08,18.60
2018,05,12,12,09,18.60
2018,05,12,12,10,18.70
2018,05,12,12,11,18.70
2018,05,12,12,12,18.80
2018,05,12,12,13,18.90
2018,05,12,12,14,19.00
2018,05,12,12,15,19.00
2018,05,12,12,16,19.10
2018,05,12,12,17,19.20
2018,05,12,12,18,19.30
2018,05,12,12,19,19.30
2018,05,12,12,20,19.40
2018,05,12,12,21,19.50
2018,05,12,12,22,19.50
2018,05,12,12,23,19.50
2018,05,12,12,24,19.50
2018,05,12,12,25,19.40
2018,05,12,12,26,19.40
2018,05,12,12,27,19.40
2018,05,12,12,28,19.40
2018,05,12,12,29,19.30
2018,05,12,12,30,19.30
2018,05,12,12,31,19.30
2018,05,12,12,32,19.40
2018,05,12,12,33,19.40
2018,05,12,12,34,19.50
2018,05,12,12,35,19.60
2018,05,12,12,36,19.60
2018,05,12,12,37,19.60
2018,05,12,12,38,19.70
2018,05,12,12,39,19.80
2018,05,12,12,40,19.80
2018,05,12,12,41,19.90
2018,05,12,12,42,19.90
2018,05,12,12,43,20.00
2018,05,12,12,44,20.10
2018,05,12,12,45,20.10
2018,05,12,12,46,20.10
2018,05,12,12,47,20.10
2018,05,12,12,48,20.00
2018,05,12,12,49,19.90
2018,05,12,12,50,19.90
2018,05,12,12,51,19.90
2018,05,12,12,52,19.90
2018,05,12,12,53,20.00
2018,05,12,12,54,20.00
2018,05,12,12,55,20.10
2018,05,12,12,56,20.20
2018,05,12,12,57,20.40
2018,05,12,12,58,20.40
2018,05,12,12,59,20.40
2018,05,12,13,00,20.40
2018,05,12,13,01,20.40
2018,05,12,13,02,20.40
2018,05,12,13,03,20.40
2018,05,12,13,04,20.40
2018,05,12,13,05,20.40
2018,05,12,13,06,20.50
2018,05,12,13,07,20.60
2018,05,12,13,08,20.70
2018,05,12,13,09,20.80
2018,05,12,13,10,20.80
2018,05,12,13,11,20.90
2018,05,12,13,12,20.90
2018,05,12,13,13,20.90
2018,05,12,13,14,21.00
2018,05,12,13,15,21.00
2018,05,12,13,16,20.90
2018,05,12,13,17,20.90
2018,05,12,13,18,20.90
2018,05,12,13,19,20.90
2018,05,12,13,20,20.90
2018,05,12,13,21,20.90
2018,05,12,13,22,20.90
2018,05,12,13,23,20.90
2018,05,12,13,24,20.80
2018,05,12,13,25,20.70
2018,05,12,13,26,20.80
2018,05,12,13,27,20.80
2018,05,12,13,28,20.80
2018,05,12,13,29,20.80
2018,05,12,13,30,20.80
2018,05,12,13,31,20.70
2018,05,12,13,32,20.80
2018,05,12,13,33,20.80
2018,05,12,13,34,20.80
2018,05,12,13,35,20.80
2018,05,12,13,36,20.80
2018,05,12,13,37,20.90
2018,05,12,13,38,20.90
2018,05,12,13,39,20.80
2018,05,12,13,40,20.90
2018,05,12,13,41,20.90
2018,05,12,13,42,21.00
2018,05,12,13,43,21.10
2018,05,12,13,44,21.10
2018,05,12,13,45,21.10
2018,05,12,13,46,21.10
2018,05,12,13,47,21.20
2018,05,12,13,48,21.30
2018,05,12,13,49,21.30
2018,05,12,13,50,21.30
2018,05,12,13,51,21.40
2018,05,12,13,52,21.40
2018,05,12,13,53,21.40
2018,05,12,13,54,21.40
2018,05,12,13,55,21.40
2018,05,12,13,56,21.50
2018,05,12,13,57,21.50
2018,05,12,13,58,21.70
2018,05,12,13,59,21.80
2018,05,12,14,00,21.90
2018,05,12,14,01,22.00
2018,05,12,14,02,22.00
2018,05,12,14,03,22.00
2018,05,12,14,04,22.00
2018,05,12,14,05,22.00
2018,05,12,14,06,22.10
2018,05,12,14,07,22.20
2018,05,12,14,08,22.30
2018,05,12,14,09,22.40
2018,05,12,14,10,22.40
2018,05,12,14,11,22.40
2018,05,12,14,12,22.50
2018,05,12,14,13,22.50
2018,05,12,14,14,22.50
2018,05,12,14,15,22.60
2018,05,12,14,16,22.60
2018,05,12,14,17,22.60
2018,05,12,14,18,22.60
2018,05,12,14,19,22.70
2018,05,12,14,20,22.80
2018,05,12,14,21,22.90
2018,05,12,14,22,22.90
2018,05,12,14,23,22.90
2018,05,12,14,24,22.90
2018,05,12,14,25,22.80
2018,05,12,14,26,22.80
2018,05,12,14,27,22.80
2018,05,12,14,28,22.90
2018,05,12,14,29,22.90
2018,05,12,14,30,23.00
2018,05,12,14,31,23.10
2018,05,12,14,32,23.10
2018,05,12,14,33,23.10
2018,05,12,14,34,23.10
2018,05,12,14,35,23.00
2018,05,12,14,36,23.00
2018,05,12,14,37,23.00
2018,05,12,14,38,23.00
2018,05,12,14,39,23.10
2018,05,12,14,40,23.20
2018,05,12,14,41,23.30
2018,05,12,14,42,23.40
2018,05,12,14,43,23.40
2018,05,12,14,44,23.50
2018,05,12,14,45,23.60
2018,05,12,14,46,23.60
2018,05,12,14,47,23.60
2018,05,12,14,48,23.50
2018,05,12,14,49,23.40
2018,05,12,14,50,23.40
2018,05,12,14,51,23.30
2018,05,12,14,52,23.30
2018,05,12,14,53,23.30
2018,05,12,14,54,23.30
2018,05,12,14,55,23.30
2018,05,12,14,56,23.30
2018,05,12,14,57,23.40
2018,05,12,14,58,23.40
2018,05,12,14,59,23.40
2018,05,12,15,00,23.50
2018,05,12,15,01,23.60
2018,05,12,15,02,23.60
2018,05,12,15,03,23.70
2018,05,12,15,04,23.60
2018,05,12,15,05,23.60
2018,05,12,15,06,23.50
2018,05,12,15,07,23.50
2018,05,12,15,08,23.50
2018,05,12,15,09,23.50
2018,05,12,15,10,23.50
2018,05,12,15,11,23.60
2018,05,12,15,12,23.60
2018,05,12,15,13,23.60
2018,05,12,15,14,23.50
2018,05,12,15,15,23.50
2018,05,12,15,16,23.50
2018,05,12,15,17,23.50
2018,05,12,15,18,23.50
2018,05,12,15,19,23.50
2018,05,12,15,20,23.50
2018,05,12,15,21,23.50
2018,05,12,15,22,23.50
2018,05,12,15,23,23.40
2018,05,12,15,24,23.40
2018,05,12,15,25,23.40
2018,05,12,15,26,23.40
2018,05,12,15,27,23.40
2018,05,12,15,28,23.50
2018,05,12,15,29,23.50
2018,05,12,15,30,23.60
2018,05,12,15,31,23.60
2018,05,12,15,32,23.60
2018,05,12,15,33,23.60
2018,05,12,15,34,23.70
2018,05,12,15,35,23.80
2018,05,12,15,36,23.80
2018,05,12,15,37,23.90
2018,05,12,15,38,24.00
2018,05,12,15,39,24.10
2018,05,12,15,40,24.20
2018,05,12,15,41,24.30
2018,05,12,15,42,24.40
2018,05,12,15,43,24.50
2018,05,12,15,44,24.60
2018,05,12,15,45,24.70
2018,05,12,15,46,24.70
2018,05,12,15,47,24.70
2018,05,12,15,48,24.70
2018,05,12,15,49,24.70
2018,05,12,15,50,24.70
2018,05,12,15,51,24.70
2018,05,12,15,52,24.70
2018,05,12,15,53,24.70
2018,05,12,15,54,24.70
2018,05,12,15,55,24.60
2018,05,12,15,56,24.60
2018,05,12,15,57,24.50
2018,05,12,15,58,24.50
2018,05,12,15,59,24.50
2018,05,12,16,00,24.60
2018,05,12,16,01,24.70
2018,05,12,16,02,24.70
2018,05,12,16,03,24.70
2018,05,12,16,04,24.80
2018,05,12,16,05,24.80
2018,05,12,16,06,24.80
2018,05,12,16,07,24.80
2018,05,12,16,08,24.80
2018,05,12,16,09,24.80
2018,05,12,16,10,24.80
2018,05,12,16,11,24.70
2018,05,12,16,12,24.70
2018,05,12,16,13,24.80
2018,05,12,16,14,24.80
2018,05,12,16,15,24.80
2018,05,12,16,16,24.90
2018,05,12,16,17,25.00
2018,05,12,16,18,25.00
2018,05,12,16,19,25.10
2018,05,12,16,20,25.10
2018,05,12,16,21,25.10
2018,05,12,16,22,25.10
2018,05,12,16,23,25.10
2018,05,12,16,24,25.10
2018,05,12,16,25,25.10
2018,05,12,16,26,25.10
2018,05,12,16,27,25.10
2018,05,12,16,28,25.10
2018,05,12,16,29,25.10
2018,05,12,16,30,25.00
2018,05,12,16,31,25.00
2018,05,12,16,32,25.00
2018,05,12,16,33,25.00
2018,05,12,16,34,25.00
2018,05,12,16,35,25.00
2018,05,12,16,36,25.10
2018,05,12,16,37,25.10
2018,05,12,16,38,25.00
2018,05,12,16,39,25.00
2018,05,12,16,40,25.10
2018,05,12,16,41,25.10
2018,05,12,16,42,25.10
2018,05,12,16,43,25.10
2018,05,12,16,44,25.10
2018,05,12,16,45,25.10
2018,05,12,16,46,25.20
2018,05,12,16,47,25.30
2018,05,12,16,48,25.30
2018,05,12,16,49,25.30
2018,05,12,16,50,25.30
2018,05,12,16,51,25.30
2018,05,12,16,52,25.30
2018,05,12,16,53,25.20
2018,05,12,16,54,25.20
2018,05,12,16,55,25.20
2018,05,12,16,56,25.20
2018,05,12,16,57,25.20
2018,05,12,16,58,25.20
2018,05,12,16,59,25.20
2018,05,12,17,00,25.10
2018,05,12,17,01,25.20
2018,05,12,17,02,25.20
2018,05,12,17,03,25.20
2018,05,12,17,04,25.20
2018,05,12,17,05,25.20
2018,05,12,17,06,25.20
2018,05,12,17,07,25.20
2018,05,12,17,08,25.20
2018,05,12,17,09,25.20
2018,05,12,17,10,25.20
2018,05,12,17,11,25.20
2018,05,12,17,12,25.20
2018,05,12,17,13,25.20
2018,05,12,17,14,25.20
2018,05,12,17,15,25.20
2018,05,12,17,16,25.20
2018,05,12,17,17,25.30
2018,05,12,17,18,25.30
2018,05,12,17,19,25.40